TimeCDT,TemperatureF,Dew PointF,Humidity,Sea Level PressureIn,VisibilityMPH,Wind Direction,Wind SpeedMPH,Gust SpeedMPH,PrecipitationIn,Events,Conditions,WindDirDegrees,DateUTC
12:52 AM,66.9,51.1,57,29.72,10.0,SE,15.0,-,N/A,,Overcast,130,2013-09-24 05:52:00
1:52 AM,66.0,52.0,60,29.71,10.0,SE,11.5,-,N/A,,Overcast,130,2013-09-24 06:52:00
2:52 AM,66.0,52.0,60,29.71,10.0,SE,13.8,-,N/A,,Overcast,130,2013-09-24 07:52:00
3:52 AM,64.9,52.0,63,29.71,10.0,ESE,10.4,-,N/A,,Overcast,120,2013-09-24 08:52:00
4:52 AM,64.0,52.0,65,29.72,10.0,ESE,10.4,-,N/A,,Mostly Cloudy,120,2013-09-24 09:52:00
5:52 AM,64.0,53.1,67,29.74,10.0,ESE,10.4,-,N/A,,Overcast,120,2013-09-24 10:52:00
6:52 AM,62.1,54.0,75,29.75,10.0,East,5.8,-,0.00,,Mostly Cloudy,90,2013-09-24 11:52:00
7:52 AM,62.1,55.0,78,29.78,10.0,ENE,5.8,-,N/A,,Mostly Cloudy,60,2013-09-24 12:52:00
8:52 AM,61.0,55.0,81,29.80,10.0,North,6.9,-,N/A,,Mostly Cloudy,10,2013-09-24 13:52:00
9:52 AM,63.0,55.0,75,29.82,10.0,ENE,6.9,-,N/A,,Mostly Cloudy,60,2013-09-24 14:52:00
10:52 AM,66.0,55.0,68,29.84,10.0,NE,6.9,-,N/A,,Mostly Cloudy,40,2013-09-24 15:52:00
11:52 AM,69.1,55.9,63,29.85,10.0,NE,9.2,-,N/A,,Mostly Cloudy,40,2013-09-24 16:52:00
12:52 PM,71.1,55.0,57,29.85,10.0,NNE,9.2,-,N/A,,Scattered Clouds,20,2013-09-24 17:52:00
1:52 PM,70.0,55.0,59,29.85,10.0,NE,6.9,16.1,N/A,,Mostly Cloudy,40,2013-09-24 18:52:00
2:52 PM,73.0,55.9,55,29.85,10.0,North,8.1,-,N/A,,Mostly Cloudy,10,2013-09-24 19:52:00
3:52 PM,73.0,55.9,55,29.86,10.0,ENE,11.5,17.3,N/A,,Mostly Cloudy,70,2013-09-24 20:52:00
4:52 PM,71.1,57.0,61,29.86,10.0,NE,13.8,-,N/A,,Mostly Cloudy,40,2013-09-24 21:52:00
5:52 PM,69.1,57.0,65,29.88,10.0,ENE,6.9,-,N/A,,Scattered Clouds,60,2013-09-24 22:52:00
6:52 PM,66.9,55.9,68,29.89,10.0,ENE,8.1,-,N/A,,Partly Cloudy,60,2013-09-24 23:52:00
7:52 PM,64.0,57.0,78,29.88,10.0,NE,5.8,-,N/A,,Partly Cloudy,50,2013-09-25 00:52:00
8:52 PM,62.1,55.9,80,29.90,10.0,NNE,5.8,-,N/A,,Clear,20,2013-09-25 01:52:00
9:52 PM,60.1,55.9,86,29.91,10.0,North,8.1,-,N/A,,Clear,360,2013-09-25 02:52:00
10:52 PM,57.9,55.0,90,29.91,9.0,NW,5.8,-,N/A,,Clear,320,2013-09-25 03:52:00
11:52 PM,57.0,55.0,93,29.90,9.0,North,4.6,-,N/A,,Clear,350,2013-09-25 04:52:00